Melrose Gunnery Range, NM

11:40 AM MDT on May 26, 2017 (GMT -0600)
Melrose Gunnery Range

Weather History for K4MR - May, 2014

Change the Weather History Date:

Sunday, May 4, 2014

  Actual Average (KCVS) Record (KCVS)
Temperature  
Mean Temperature 73 °F -  
Max Temperature 90 °F 76 °F 91 °F (2000)
Min Temperature 56 °F 46 °F 36 °F (2013)
Cooling Degree Days 8    
Growing Degree Days 23 (Base 50)    
Moisture  
Dew Point 15 °F    
Average Humidity 10    
Maximum Humidity 21    
Minimum Humidity 6    
Precipitation  
Precipitation 0.00 in - - ()
Sea Level Pressure  
Sea Level Pressure 29.88 in    
Wind  
Wind Speed 14 mph (WSW)    
Max Wind Speed 24 mph    
Max Gust Speed 33 mph    
Visibility 12 miles    
Events      
Averages and records for this station are not official NWS values.
T = Trace of Precipitation, MM = Missing Value Source: NWS Daily Summary

Daily Weather History Graph

Daily Weather History Graph

Search for Another Location

Airport or City:

Trip Planner

Search our weather history database for the weather conditions in past years. The results will help you decide how hot, cold, wet, or windy it might be!

Date:

Astronomy

May. 04, 2014 Rise Set
Actual Time 6:02 AM MDT 7:41 PM MDT
Civil Twilight 5:35 AM MDT 8:08 PM MDT
Nautical Twilight 5:03 AM MDT 8:41 PM MDT
Astronomical Twilight 4:28 AM MDT 9:15 PM MDT
Moon 10:29 AM MDT (5/4) No Moon Set
Length of Visible Light 14h 33m
Length of Day
13h 39m
Waxing Crescent, 28% of the Moon is Illuminated
May 4
Waxing Crescent
May 6
First Quarter
May 14
Full
May 21
Last Quarter
May 28
New

Hourly Weather History & Observations

Time (MDT) Temp. Dew Point Humidity Pressure Visibility Wind Dir Wind Speed Gust Speed Precip Events Conditions
12:56 AM 63.7 °F 13.8 °F 14% 29.87 in 12.0 mi SSW 13.8 mph - N/A   Clear
1:56 AM 60.6 °F 13.8 °F 16% 29.86 in 12.0 mi SSW 15.0 mph - N/A   Clear
2:56 AM 59.7 °F 14.4 °F 17% 29.86 in 12.0 mi SSW 13.8 mph - N/A   Clear
3:56 AM 57.7 °F 14.5 °F 18% 29.86 in 12.0 mi SSW 15.0 mph - N/A   Clear
4:56 AM 57.6 °F 14.4 °F 18% 29.86 in 12.0 mi SSW 15.0 mph - N/A   Clear
5:56 AM 57.0 °F 14.2 °F 19% 29.88 in 12.0 mi SSW 12.7 mph - N/A   Clear
6:56 AM 56.3 °F 16.9 °F 21% 29.90 in 12.0 mi ESE 5.8 mph - N/A   Clear
7:56 AM 65.3 °F 14.9 °F 14% 29.91 in 12.0 mi SSW 15.0 mph - N/A   Clear
8:55 AM 71.6 °F 15.8 °F 12% 30.07 in 12.0 mi SSW 13.8 mph 20.7 mph N/A   Partly Cloudy
8:56 AM 71.6 °F 16.3 °F 12% 29.91 in 12.0 mi SSW 15.0 mph 21.9 mph N/A   Partly Cloudy
9:56 AM 76.3 °F 16.5 °F 10% 29.89 in 12.0 mi WSW 16.1 mph 20.7 mph N/A   Clear
10:56 AM 80.6 °F 18.0 °F 10% 29.88 in 12.0 mi West 15.0 mph 24.2 mph N/A   Clear
11:21 AM 82.4 °F 17.6 °F 9% 30.05 in 12.0 mi WSW 16.1 mph 24.2 mph N/A   Clear
11:39 AM 84.2 °F 17.6 °F 8% 30.05 in 12.0 mi WNW 16.1 mph 24.2 mph N/A   Clear
11:56 AM 84.4 °F 18.7 °F 9% 29.86 in 12.0 mi West 18.4 mph 24.2 mph N/A   Clear
12:56 PM 86.9 °F 19.0 °F 8% 29.84 in 12.0 mi WNW 12.7 mph 21.9 mph N/A   Clear
1:56 PM 87.4 °F 17.6 °F 8% 29.82 in 12.0 mi West 8.1 mph 21.9 mph N/A   Clear
2:38 PM 87.8 °F 17.6 °F 8% 29.98 in 12.0 mi SW 12.7 mph 23.0 mph N/A   Clear
2:56 PM 88.7 °F 17.1 °F 7% 29.79 in 12.0 mi WNW 10.4 mph 29.9 mph N/A   Clear
3:08 PM 87.8 °F 17.6 °F 8% 29.95 in 12.0 mi West 19.6 mph 31.1 mph N/A   Clear
3:24 PM 89.6 °F 15.8 °F 7% 29.95 in 12.0 mi WSW 15.0 mph 26.5 mph N/A   Clear
3:42 PM 89.6 °F 15.8 °F 7% 29.95 in 12.0 mi SW 12.7 mph 28.8 mph N/A   Clear
3:56 PM 90.1 °F 15.4 °F 6% 29.78 in 12.0 mi WSW 16.1 mph 27.6 mph N/A   Clear
3:57 PM 89.6 °F 15.8 °F 7% 29.94 in 12.0 mi West 19.6 mph 27.6 mph N/A   Clear
4:09 PM 89.6 °F 15.8 °F 7% 29.94 in 12.0 mi SW 13.8 mph 27.6 mph N/A   Clear
4:19 PM 89.6 °F 14.0 °F 6% 29.94 in 12.0 mi West 24.2 mph 31.1 mph N/A   Clear
4:30 PM 89.6 °F 14.0 °F 6% 29.94 in 12.0 mi SW 13.8 mph 33.4 mph N/A   Clear
4:50 PM 89.6 °F 14.0 °F 6% 29.94 in 12.0 mi West 16.1 mph 29.9 mph N/A   Clear
4:56 PM 89.2 °F 13.8 °F 6% 29.77 in 12.0 mi West 16.1 mph 25.3 mph N/A   Clear
5:56 PM 87.6 °F 13.1 °F 6% 29.76 in 12.0 mi WSW 16.1 mph 27.6 mph N/A   Clear
6:56 PM 85.6 °F 12.4 °F 6% 29.76 in 12.0 mi West 15.0 mph 23.0 mph N/A   Clear
7:56 PM 78.1 °F 12.4 °F 8% 29.77 in 12.0 mi WSW 10.4 mph - N/A   Clear
8:56 PM 76.5 °F 10.4 °F 8% 29.78 in 12.0 mi WSW 11.5 mph - N/A   Clear
9:56 PM 72.0 °F 10.8 °F 9% 29.79 in 12.0 mi SW 10.4 mph - N/A   Clear
10:56 PM 68.2 °F 10.6 °F 11% 29.79 in 12.0 mi SSW 11.5 mph - N/A   Clear
11:56 PM 68.9 °F 10.6 °F 10% 29.77 in 12.0 mi SSW 12.7 mph - N/A   Clear